Tracking 30107 objects as of 25-Jan-2025
HD Live streaming from Space Station
objects crossing your sky now

OBJECT Q

Track OBJECT Q now!
10-day predictions


NORAD ID: 59065
Int'l Code: 2024-039Q
Perigee: 465.5 km
Apogee: 484.8 km
Inclination: 97.4 °
Period: 94.0 minutes
Semi major axis: 6846 km
RCS: Unknown
Launch date: February 29, 2024
Source: (TBD)
Launch site: VOSTOCHNY COSMODROME (VOSTO)

Note: This is a ROCKET BODY
Your satellite tracking list
Your tracking list is empty




NASA's NSSDC Master Catalog

Two Line Element Set (TLE):
1 59065U 24039Q   25025.54648666  .00013943  00000-0  44350-3 0  9991
2 59065  97.4227 352.5395 0014043 133.5457 226.6954 15.32619669 50557
Source of the keplerian elements: AFSPC